Content
SEND FEEDBACK

Daily
Averages
Monthly
Summary
United States of America

ELIZABETH, NEW JERSEY


Home > North America > United States > New Jersey
Elevation: 1 foot     Latitude: 40 42N     Longitude: 074 10W

WEATHER
 
SELECT A DAY
Number of Records: 189,524;   Date Range: 1/1/95 - 7/22/14
 
SHARE

PRINT THIS DATA

[ ← Previous Day ]
WEATHER ALMANAC - APRIL 4, 2013
[ Next Day → ]
[ °C ]   °F
Weather ElementAverageHighLow
Temperature42.4 °F53.1 °F (2:51 pm)32 °F (3:51 am)
Dewpoint19.6 °F28.9 °F (6:51 pm)12.9 °F (1:51 am)
Humidity40.8 %52 % (5:51 am)27 % (2:51 pm)
Barometer30.26 in30.39 in (6:51 am)30.09 in (11:51 pm)
Wind Speed8.2 mph13.8 mph (8:51 pm)
Wind Gust18.4 mph (1:51 am)
Weather ElementAverage
Visibility10 mi
Wind DirectionSSW (216.5 °)

Weather ElementTotal
Precipitation---
Heating Degree Days22.5 (Base 65)
Averaged from 23 records on April 4, 2013
WEATHER CONDITIONS BREAKOUT
WIND DIRECTION BREAKOUT
WEATHER BY HOUR - APRIL 4, 2013
[ °C ]   °F
Local TimeTemperatureDewpointHumidityBarometerVisibilityWind DirectionWind SpeedGust SpeedPrecipitationEventsConditions
1:51 AM35.1 °F12.9 °F40 %30.29 in10.0 miNNW (330°)12.7 mph18.4 mphClear
2:51 AM34.0 °F14.0 °F44 %30.30 in10.0 miWNW (300°)5.8 mphClear
3:51 AM32.0 °F15.1 °F50 %30.33 in10.0 miSW (230°)5.8 mphClear
4:51 AM33.8 °F15.8 °F48 %30.34 in10.0 miWest (260°)5.8 mphClear
5:51 AM32.0 °F16.0 °F52 %30.35 in10.0 miWest (280°)9.2 mphClear
6:51 AM32.0 °F16.0 °F52 %30.39 in10.0 miWNW (290°)9.2 mphPartly Cloudy
7:51 AM35.6 °F15.8 °F44 %30.39 in10.0 miWNW (290°)8.1 mphPartly Cloudy
8:51 AM37.9 °F16.0 °F41 %30.39 in10.0 miWNW (290°)6.9 mphScattered Clouds
9:51 AM39.0 °F16.0 °F39 %30.38 in10.0 miCalmMostly Cloudy
10:51 AM42.1 °F18.0 °F38 %30.36 in10.0 miWNW (290°)4.6 mphMostly Cloudy
11:51 AM44.1 °F17.1 °F34 %30.33 in10.0 miSSW (210°)5.8 mphMostly Cloudy
12:51 PM48.9 °F19.0 °F31 %30.30 in10.0 miWSW (240°)8.1 mphMostly Cloudy
1:51 PM50.0 °F18.0 °F28 %30.26 in10.0 miSW (220°)3.5 mphMostly Cloudy
2:51 PM53.1 °F19.9 °F27 %30.22 in10.0 miSSW (210°)6.9 mphMostly Cloudy
3:51 PM48.9 °F25.0 °F39 %30.19 in10.0 miSSE (150°)11.5 mphMostly Cloudy
4:51 PM48.2 °F26.6 °F43 %30.18 in10.0 miSE (130°)10.4 mphMostly Cloudy
5:51 PM48.9 °F27.0 °F43 %30.16 in10.0 miSSE (160°)8.1 mphOvercast
6:51 PM48.9 °F28.9 °F46 %30.16 in10.0 miSSE (150°)8.1 mphOvercast
7:51 PM48.0 °F27.0 °F44 %30.14 in10.0 miSouth (170°)11.5 mphOvercast
8:51 PM48.0 °F21.9 °F36 %30.13 in10.0 miSSW (210°)13.8 mphOvercast
9:51 PM46.9 °F17.1 °F30 %30.13 in10.0 miSouth (190°)11.5 mphOvercast
10:51 PM44.1 °F24.1 °F45 %30.12 in10.0 miSouth (190°)11.5 mphOvercast
11:51 PM43.0 °F23.0 °F45 %30.09 in10.0 miSouth (190°)9.2 mphOvercast
Hourly data recorded from KEWR, located miles away from Elizabeth, New Jersey







STORIES FROM OUR PARTNERS